Regional Weather Roundup
Issued by NWS

Home | Current Version | Previous Version | Graphics & Text | Print | Product List | Glossary On
Versions: 1 2 3 4 5 6 7 8 9 10 11 12 13 14 15 16 17 18 19 20 21 22 23 24 25 26 27 28 29 30 31 32 33 34 35 36 37 38 39 40 41 42 43 44 45 46 47 48 49 50
000
ASUS43 KBIS 241310
RWRND

NORTH DAKOTA REGIONAL WEATHER ROUNDUP
NATIONAL WEATHER SERVICE BISMARCK ND
800 AM CDT THU JUL 24 2014

NOTE: "FAIR" INDICATES FEW OR NO CLOUDS BELOW 12,000 FEET WITH NO
SIGNIFICANT WEATHER AND/OR OBSTRUCTIONS TO VISIBILITY.


NDZ001>003-009>011-017-241400-
NORTHWEST NORTH DAKOTA

CITY           SKY/WX    TMP DP  RH WIND       PRES   REMARKS
WILLISTON      CLOUDY    64  61  90 SE9       29.89R
MINOT          TSTM      63  60  90 S14       30.05R
MINOT AFB      LGT RAIN  63  63 100 SE7       30.03R
$$

NDZ018>021-031>035-040>046-241400-
SOUTHWEST NORTH DAKOTA

CITY           SKY/WX    TMP DP  RH WIND       PRES   REMARKS
BISMARCK       CLOUDY    68  58  70 SE13      29.93F
DICKINSON      LGT RAIN  62  59  90 N18       29.90F
GARRISON         N/A     65  60  84 NW25G43   30.09R
HETTINGER ARPT CLOUDY    67  59  75 SE20G30   29.85F
$$

NDZ004>008-012>016-024-026-027-054-241400-
NORTHEAST NORTH DAKOTA

CITY           SKY/WX    TMP DP  RH WIND       PRES   REMARKS
GRAND FORKS    PTSUNNY   63  58  83 SE8       30.05F
GRND FRKS AFB  SUNNY     63  62  95 SE8       30.06F
DEVILS LAKE    PTSUNNY   64  55  72 SE13      30.03R
$$

NDZ022-023-025-028>030-036>039-047>053-241400-
SOUTHEAST NORTH DAKOTA

CITY           SKY/WX    TMP DP  RH WIND       PRES   REMARKS
FARGO          MOSUNNY   68  57  68 SE10      30.09R
JAMESTOWN      PTSUNNY   64  57  78 SE13      30.03F
$$



USA.gov is the U.S. government's official web portal to all federal, state and local government web resources and services.